User: anonymous   Login
Location: Unspecified
(0.0000°N, 0.0000°E)
Time: 03:53:24
(UTC+00:00)
Language:

NNS O-2 - Orbit

View from above orbital plane
View from above orbital plane
View from above satellite
View from above satellite

Ground track
Ground track

The orbit data is extracted from the following two-line orbital elements,

1   965U 64083D   19082.88019222  .00000026  00000-0  23010-4 0  9991
2   965  90.0198 192.6905 0042530  83.4428  31.5075 13.56726861685874
Epoch (UTC): 23 March 2019 21:07:28
Eccentricity: 0.0042530
inclination: 90.0198°
perigee height: 1016 km
apogee height: 1079 km
right ascension of ascending node: 192.6905°
argument of perigee: 83.4428°
revolutions per day: 13.56726861
mean anomaly at epoch: 31.5075°
orbit number at epoch: 68587

The dashed part of the orbit path shows where the satellite is in the earth's shadow,  

DLR